User: anonymous   Login
Location: Caltech
(34.1382°N, 118.1253°W)
Time: 06:51:40
(UTC-08:00)
Language:

Cosmos 2219 - Orbit

View from above orbital plane
View from above orbital plane
View from above satellite
View from above satellite

Ground track
Ground track

The orbit data is extracted from the following two-line orbital elements,

1 22219U 92076A   17055.19244215 -.00000254  00000-0 -10974-3 0  9993
2 22219  71.0596  73.7466 0019387 209.6596 150.3428 14.13608653252249
Epoch (UTC): 24 February 2017 04:37:07
Eccentricity: 0.0019387
inclination: 71.0596°
perigee height: 833 km
apogee height: 861 km
right ascension of ascending node: 73.7466°
argument of perigee: 209.6596°
revolutions per day: 14.13608653
mean anomaly at epoch: 150.3428°
orbit number at epoch: 25224

The dashed part of the orbit path shows where the satellite is in the earth's shadow,  

DLR